Weather History for KPEO - February, 2014

Change the Weather History Date:

Friday, February 14, 2014

  Actual Average (KITH) Record (KITH)
Temperature  
Mean Temperature 26 °F -  
Max Temperature 32 °F 30 °F 56 °F (1938)
Min Temperature 21 °F 13 °F -14 °F (1958)
Degree Days  
Heating Degree Days 38    
Moisture  
Dew Point 19 °F    
Average Humidity 76    
Maximum Humidity 89    
Minimum Humidity 54    
Precipitation  
Precipitation 0.00 in - - ()
Sea Level Pressure  
Sea Level Pressure 29.49 in    
Wind  
Wind Speed 12 mph (West)    
Max Wind Speed 21 mph    
Max Gust Speed 25 mph    
Visibility 7 miles    
Events Snow    
Averages and records for this station are not official NWS values.
T = Trace of Precipitation, MM = Missing Value Source: NWS Daily Summary

Daily Weather History Graph

Daily Weather History Graph

Search for Another Location

Airport or City:

Trip Planner

Search our weather history database for the weather conditions in past years. The results will help you decide how hot, cold, wet, or windy it might be!

Date:

Astronomy

Feb. 14, 2014 Rise Set
Actual Time 7:06 AM EST 5:38 PM EST
Civil Twilight 6:37 AM EST 6:07 PM EST
Nautical Twilight 6:04 AM EST 6:40 PM EST
Astronomical Twilight 5:31 AM EST 7:13 PM EST
Moon 5:41 PM EST (2/14) 6:31 AM EST (2/14)
Length of Visible Light 11h 30m
Length of Day
10h 32m
Full, 100% of the Moon is Illuminated
Feb 14
Full
Feb 14
Full
Feb 22
Last Quarter
Mar 1
New
Mar 8
First Quarter

Hourly Weather History & Observations

Time (EST) Temp. Windchill Dew Point Humidity Pressure Visibility Wind Dir Wind Speed Gust Speed Precip Events Conditions
12:07 AM 21.9 °F 8.7 °F 18.0 °F 85% 29.40 in 3.0 mi NW 15.0 mph 23.0 mph 0.00 in Snow Light Snow
12:23 AM 21.9 °F 11.7 °F 18.0 °F 85% 29.40 in 2.5 mi NW 9.2 mph 19.6 mph 0.00 in Snow Light Snow
12:28 AM 21.9 °F 8.2 °F 18.0 °F 85% 29.40 in 2.0 mi NW 16.1 mph 21.9 mph 0.00 in Snow Light Snow
12:33 AM 21.9 °F 9.2 °F 18.0 °F 85% 29.39 in 1.8 mi NW 13.8 mph 21.9 mph 0.00 in Snow Light Snow
12:53 AM 21.9 °F 10.4 °F 18.0 °F 85% 29.43 in 2.0 mi NW 11.5 mph 18.4 mph 0.00 in Snow Light Snow
1:04 AM 23.0 °F 11.1 °F 18.0 °F 81% 29.39 in 2.5 mi NW 12.7 mph - 0.00 in Snow Light Snow
1:13 AM 23.0 °F 9.6 °F 18.0 °F 81% 29.39 in 3.0 mi NW 16.1 mph 20.7 mph 0.00 in Snow Light Snow
1:20 AM 21.9 °F 11.0 °F 18.0 °F 85% 29.39 in 2.5 mi WNW 10.4 mph 21.9 mph 0.00 in Snow Light Snow
1:27 AM 21.9 °F 9.8 °F 18.0 °F 85% 29.39 in 2.0 mi WNW 12.7 mph 19.6 mph 0.00 in Snow Light Snow
1:34 AM 21.9 °F 11.0 °F 18.0 °F 85% 29.39 in 1.8 mi NW 10.4 mph 19.6 mph 0.00 in Snow Light Snow
1:41 AM 21.9 °F 10.4 °F 18.0 °F 85% 29.38 in 1.8 mi NW 11.5 mph 18.4 mph 0.00 in Snow Light Snow
1:53 AM 21.9 °F 8.7 °F 18.0 °F 85% 29.42 in 1.8 mi NW 15.0 mph 20.7 mph 0.00 in Snow Light Snow
2:06 AM 21.9 °F 9.2 °F 18.0 °F 85% 29.38 in 2.5 mi NW 13.8 mph 19.6 mph 0.00 in Snow Light Snow
2:15 AM 21.9 °F 10.4 °F 18.0 °F 85% 29.38 in 4.0 mi WNW 11.5 mph 19.6 mph 0.00 in Snow Light Snow
2:30 AM 21.9 °F 10.4 °F 18.0 °F 85% 29.37 in 8.0 mi NW 11.5 mph 20.7 mph 0.00 in Snow Light Snow
2:53 AM 21.9 °F 13.4 °F 18.0 °F 85% 29.40 in 10.0 mi WNW 6.9 mph - 0.00 in   Overcast
3:18 AM 21.9 °F 11.7 °F 19.0 °F 89% 29.37 in 10.0 mi WNW 9.2 mph 18.4 mph N/A   Overcast
3:53 AM 21.9 °F 12.5 °F 19.0 °F 89% 29.41 in 10.0 mi NW 8.1 mph - N/A   Overcast
4:29 AM 23.0 °F 13.9 °F 19.9 °F 88% 29.37 in 8.0 mi West 8.1 mph - N/A   Overcast
4:53 AM 23.0 °F 13.1 °F 19.9 °F 88% 29.42 in 7.0 mi West 9.2 mph - N/A   Overcast
5:44 AM 23.0 °F 11.1 °F 19.9 °F 88% 29.38 in 8.0 mi West 12.7 mph - N/A   Overcast
5:53 AM 23.0 °F 13.1 °F 19.9 °F 88% 29.42 in 10.0 mi WNW 9.2 mph - N/A   Overcast
6:53 AM 23.0 °F 14.7 °F 19.9 °F 88% 29.42 in 10.0 mi West 6.9 mph - N/A   Overcast
7:53 AM 24.1 °F 15.2 °F 19.0 °F 81% 29.44 in 10.0 mi SW 8.1 mph - N/A   Overcast
8:53 AM 24.1 °F 15.2 °F 19.9 °F 84% 29.44 in 10.0 mi SW 8.1 mph - N/A   Overcast
9:34 AM 26.1 °F 15.6 °F 19.9 °F 78% 29.41 in 10.0 mi SW 11.5 mph - N/A   Overcast
9:53 AM 27.0 °F 17.3 °F 21.0 °F 78% 29.46 in 10.0 mi WSW 10.4 mph - N/A   Overcast
10:40 AM 28.9 °F 19.2 °F 21.9 °F 75% 29.43 in 10.0 mi WSW 11.5 mph - N/A   Overcast
10:53 AM 28.9 °F 19.2 °F 21.0 °F 72% 29.47 in 10.0 mi West 11.5 mph - N/A   Overcast
11:41 AM 32.0 °F 23.6 °F 21.9 °F 66% 29.44 in 10.0 mi West 10.4 mph - N/A   Overcast
11:53 AM 32.0 °F 21.2 °F 21.9 °F 66% 29.48 in 10.0 mi WSW 16.1 mph - N/A   Overcast
12:11 PM 30.9 °F 19.8 °F 19.9 °F 64% 29.45 in 10.0 mi West 16.1 mph 25.3 mph N/A   Overcast
12:53 PM 30.9 °F 19.8 °F 16.0 °F 54% 29.49 in 10.0 mi West 16.1 mph - N/A   Overcast
1:53 PM 32.0 °F 19.8 °F 19.9 °F 61% 29.52 in 8.0 mi WSW 20.7 mph - N/A   Overcast
2:33 PM 30.9 °F 20.2 °F 21.0 °F 67% 29.51 in 7.0 mi West 15.0 mph - N/A   Overcast
2:53 PM 30.9 °F 21.2 °F 21.0 °F 67% 29.55 in 7.0 mi West 12.7 mph 21.9 mph N/A   Overcast
3:25 PM 32.0 °F 21.2 °F 19.9 °F 61% 29.54 in 8.0 mi WSW 16.1 mph 23.0 mph N/A   Overcast
3:53 PM 30.9 °F 23.5 °F 19.0 °F 61% 29.60 in 9.0 mi WSW 8.1 mph - N/A   Overcast
4:53 PM 30.0 °F 17.5 °F 19.0 °F 64% 29.61 in 9.0 mi WSW 19.6 mph 23.0 mph N/A   Mostly Cloudy
5:32 PM 30.0 °F 23.2 °F 19.0 °F 64% 29.59 in 8.0 mi WSW 6.9 mph - N/A   Overcast
5:53 PM 30.0 °F 18.3 °F 19.0 °F 64% 29.65 in 9.0 mi WSW 17.3 mph 23.0 mph N/A   Overcast
6:17 PM 28.9 °F 19.8 °F 19.0 °F 67% 29.64 in 10.0 mi WSW 10.4 mph - N/A   Overcast
6:36 PM 28.9 °F 19.8 °F 19.0 °F 67% 29.65 in 10.0 mi West 10.4 mph - N/A   Overcast
6:53 PM 28.9 °F 19.2 °F 19.0 °F 67% 29.70 in 10.0 mi WSW 11.5 mph - N/A   Overcast
7:53 PM 28.0 °F 17.0 °F 19.0 °F 69% 29.71 in 10.0 mi WSW 13.8 mph - N/A   Overcast
8:53 PM 28.0 °F 18.6 °F 19.0 °F 69% 29.72 in 10.0 mi WSW 10.4 mph - N/A   Overcast
9:53 PM 28.0 °F 20.0 °F 19.0 °F 69% 29.73 in 10.0 mi SW 8.1 mph - N/A   Overcast
10:53 PM 28.0 °F 22.8 °F 19.0 °F 69% 29.74 in 10.0 mi SSW 4.6 mph - N/A   Overcast
11:53 PM 28.0 °F - 19.0 °F 69% 29.74 in 10.0 mi Calm Calm - N/A   Overcast